Location: Caltech
(34.1382°N, 118.1253°W)
Time: 02:24:09
(UTC-07:00)

Tiros 1 despin weight - Visible Passes

Search period start: 31 July 2015 00:00
Search period end: 10 August 2015 00:00
Orbit: 597 x 647 km, 48.2° (Epoch: 30 July)

Date Brightness Start Highest point End Pass type
(mag) Time Alt. Az. Time Alt. Az. Time Alt. Az.
31 Jul ? 01:14:55 10° NNW 01:16:04 15° NNW 01:16:04 15° NNW visible
31 Jul ? 20:23:48 10° WSW 20:28:16 55° NNW 20:32:48 10° NE visible
31 Jul ? 22:07:32 10° WNW 22:10:44 18° NNW 22:13:55 10° NNE visible
31 Jul ? 23:51:13 10° NNW 23:53:50 15° N 23:55:07 13° NNE visible
01 Aug ? 20:42:17 10° W 20:46:22 31° NNW 20:50:29 10° NE visible
01 Aug ? 22:26:32 10° NW 22:29:10 15° N 22:31:49 10° NNE visible
02 Aug ? 00:09:09 10° NNW 00:11:28 17° N 00:11:28 17° N visible
02 Aug ? 21:01:08 10° WNW 21:04:38 21° NNW 21:08:08 10° NNE visible
02 Aug ? 22:45:12 10° NNW 22:47:40 14° N 22:50:09 10° NE visible
03 Aug ? 00:26:50 10° NNW 00:27:55 15° NNW 00:27:55 15° NNW visible
03 Aug ? 21:20:11 10° NW 21:23:02 16° N 21:25:53 10° NNE visible
03 Aug ? 23:03:20 10° NNW 23:06:08 16° N 23:07:21 14° NNE visible
04 Aug ? 21:39:04 10° NW 21:41:30 14° N 21:43:57 10° NNE visible
04 Aug ? 23:21:06 10° NNW 23:23:56 20° N 23:23:56 20° N visible
05 Aug ? 20:13:46 10° WNW 20:16:54 18° NNW 20:20:01 10° NNE visible
05 Aug ? 21:57:27 10° NNW 21:59:59 14° N 22:02:34 10° NE visible
05 Aug ? 23:38:45 10° NW 23:40:33 20° NNW 23:40:33 20° NNW visible
06 Aug ? 20:32:47 10° NW 20:35:20 14° N 20:37:53 10° NNE visible
06 Aug ? 22:15:21 10° NNW 22:18:26 17° NNE 22:20:05 15° NE visible
06 Aug ? 23:56:24 10° NW 23:57:12 15° NW 23:57:12 15° NW visible
07 Aug ? 20:51:27 10° NNW 20:53:49 14° N 20:56:13 10° NNE visible
07 Aug ? 22:33:02 10° NNW 22:36:46 24° NNE 22:36:47 24° NNE visible
08 Aug ? 21:09:33 10° NNW 21:12:17 15° N 21:15:04 10° NE visible
08 Aug ? 22:50:39 10° NW 22:53:30 29° N 22:53:30 29° N visible
09 Aug ? 21:27:18 10° NNW 21:30:41 20° NNE 21:33:08 14° NE visible
09 Aug ? 23:08:21 10° NW 23:10:15 24° NW 23:10:15 24° NW visible
